Hourly Data Report for August 05, 2003

TORONTO CITY
ONTARIO

43°40'00.000" N
79°24'00.000" W
112.50 m
6158355
71508
XTO

Download Data

Hourly Data (August 2003)
Hourly Data Report for August 5, 2003
TIME
LST
Temp Definition
°C
Dew Point Definition
°C
Rel Hum Definition
%
Precip. Amount Definition
mm

Wind Dir Definition
10's deg

Wind Spd Definition
km/h
Visibility Definition
km
Stn Press Definition
kPa
Hmdx Definition


Wind Chill Definition


Weather Definition


00:00 21.2 20.2 94   LegendMM LegendMM LegendMM 99.69 29   LegendNANA
01:00 20.9 20.1 95   LegendMM LegendMM LegendMM 99.67 29   LegendNANA
02:00 20.3 19.8 97   LegendMM LegendMM LegendMM 99.64 28   LegendNANA
03:00 20.7 19.9 95   LegendMM LegendMM LegendMM 99.64 28   LegendNANA
04:00 20.0 19.3 96   LegendMM LegendMM LegendMM 99.65 27   LegendNANA
05:00 20.2 19.5 96   LegendMM LegendMM LegendMM 99.66 27   LegendNANA
06:00 20.2 19.5 96   LegendMM LegendMM LegendMM 99.69 27   LegendNANA
07:00 20.9 20.0 95   LegendMM LegendMM LegendMM 99.68 28   LegendNANA
08:00 22.7 20.6 88   LegendMM LegendMM LegendMM 99.73 31   LegendNANA
09:00 24.3 20.4 79   LegendMM LegendMM LegendMM 99.71 32   LegendNANA
10:00 26.2 21.1 74   LegendMM LegendMM LegendMM 99.71 35   LegendNANA
11:00 23.8 20.2 80   LegendMM LegendMM LegendMM 99.70 32   LegendNANA
12:00 23.2 20.1 83   LegendMM LegendMM LegendMM 99.67 31   LegendNANA
13:00 25.2 21.0 78   LegendMM LegendMM LegendMM 99.63 34   LegendNANA
14:00 24.0 20.3 80   LegendMM LegendMM LegendMM 99.66 32   LegendNANA
15:00 21.7 20.5 93   LegendMM LegendMM LegendMM 99.64 30   LegendNANA
16:00 21.4 20.5 95   LegendMM LegendMM LegendMM 99.60 29   LegendNANA
17:00 22.0 20.2 90   LegendMM LegendMM LegendMM 99.60 30   LegendNANA
18:00 22.5 19.9 85   LegendMM LegendMM LegendMM 99.61 30   LegendNANA
19:00 22.9 20.6 87   LegendMM LegendMM LegendMM 99.59 31   LegendNANA
20:00 22.1 19.9 87   LegendMM LegendMM LegendMM 99.58 30   LegendNANA
21:00 22.1 20.1 88   LegendMM LegendMM LegendMM 99.60 30   LegendNANA
22:00 21.3 19.9 92   LegendMM LegendMM LegendMM 99.56 29   LegendNANA
23:00 21.7 20.2 91   LegendMM LegendMM LegendMM 99.54 29   LegendNANA

Notes on Data Quality.

Legend

  • E = Estimated
  • M = Missing
  • NA = Not Available*
  • [empty] = Indicates an unobserved value
Date modified: